Overview Statistics Trail Chart Weather Telemetry Raw packets
 

This is the latest recevied weather packets stored in our database for station/object SV9FBP-13. If no packets are shown the sender has not sent any weather packets the latest 10 day(s).

<< 3 4 5 6 7 8 9 >>
Time Temp. Humidity Pressure Rain* Wind** Luminosity Snow
1788552719 27.22° C 46% 1009.7 hPa 0 mm - - -
1788551818 27.22° C 48% 1010 hPa 0 mm - - -
1788550915 27.22° C 48% 1010.1 hPa 0 mm - - -
1788550013 27.22° C 49% 1010.1 hPa 0 mm - - -
1788549111 27.22° C 48% 1010.2 hPa 0 mm - - -
1788548209 27.22° C 49% 1010 hPa 0 mm - - -
1788547307 27.22° C 46% 1009.7 hPa 0 mm - - -
1788546405 27.22° C 47% 1009.8 hPa 0 mm - - -
1788545503 26.67° C 50% 1009.5 hPa 0 mm - - -
1788544625 27.22° C 51% 1009.5 hPa 0 mm - - -
1788543698 27.78° C 42% 1009.3 hPa 0 mm - - -
1788542797 27.78° C 42% 1009.2 hPa 0 mm - - -
1788541894 27.78° C 40% 1009.1 hPa 0 mm - - -
1788540992 28.33° C 38% 1008.9 hPa 0 mm - - -
1788540090 28.33° C 40% 1008.9 hPa 0 mm - - -
1788539187 28.89° C 36% 1008.7 hPa 0 mm - - -
1788538303 30° C 35% 1008.7 hPa 0 mm - - -
1788537383 30° C 35% 1008.5 hPa 0 mm - - -
1788536481 31.11° C 33% 1008.3 hPa 0 mm - - -
1788535579 31.67° C 31% 1008.1 hPa 0 mm - - -
1788534677 31.67° C 31% 1008.1 hPa 0 mm - - -
1788533775 31.67° C 30% 1008 hPa 0 mm - - -
1788532872 32.78° C 30% 1007.7 hPa 0 mm - - -
1788531970 32.22° C 32% 1007.7 hPa 0 mm - - -
1788531068 32.22° C 32% 1007.6 hPa 0 mm - - -

* Rain latest hour (hover to see other rain measurements)
** Current wind speed in m/s (hover to see current wind gust speed)